GW6041 Weather Reports


Display with metric or nautical units.
time (UTC)temp
F
wind
direction
speed
MPH
gust
MPH
rain 1hr
in
rain 24hr
in
rain mn
in
humidity
%
barometer
mb
20260506190931 40 178 4.0 8.0 0.00 0.00 0.00 72 1010.7
20260506190427 40 136 4.0 7.0 0.00 0.00 0.00 71 1010.7
20260506185925 41 85 3.0 6.0 0.00 0.00 0.00 71 1010.6
20260506185422 41 176 2.0 7.0 0.00 0.00 0.00 70 1010.5
20260506184919 41 104 2.0 4.0 0.00 0.00 0.00 69 1010.6
20260506184415 41 125 1.0 7.0 0.00 0.00 0.00 69 1010.6
20260506183913 41 155 4.0 10.0 0.00 0.00 0.00 69 1010.3
20260506183408 41 116 3.0 7.0 0.00 0.00 0.00 70 1010.6
20260506182905 42 134 4.0 6.0 0.00 0.00 0.00 69 1010.4
20260506182402 42 127 5.0 9.0 0.00 0.00 0.00 69 1010.5
20260506181859 42 126 4.0 7.0 0.00 0.00 0.00 68 1010.3
20260506181358 42 162 5.0 8.0 0.00 0.00 0.00 64 1010.6
20260506180854 42 174 4.0 8.0 0.00 0.00 0.00 65 1010.4
20260506180350 42 159 5.0 9.0 0.00 0.00 0.00 64 1010.5
20260506175847 42 149 5.0 8.0 0.00 0.00 0.00 65 1010.4
20260506175344 42 172 7.0 9.0 0.00 0.00 0.00 64 1010.3
20260506174841 42 162 9.0 10.0 0.00 0.00 0.00 64 1010.2
20260506174339 42 176 3.0 9.0 0.00 0.00 0.00 65 1010.4
20260506173836 42 142 5.0 10.0 0.00 0.00 0.00 65 1010.3
20260506173332 42 144 3.0 9.0 0.00 0.00 0.00 66 1010.4
20260506172830 42 148 7.0 9.0 0.00 0.00 0.00 66 1010.1
20260506172326 42 155 11.0 12.0 0.00 0.00 0.00 66 1010.3
20260506171824 43 152 6.0 10.0 0.00 0.00 0.00 66 1010.2
20260506171321 43 164 6.0 12.0 0.00 0.00 0.00 66 1010.3
20260506170819 43 162 6.0 11.0 0.00 0.00 0.00 66 1010.2
20260506170314 44 116 5.0 12.0 0.00 0.00 0.00 65 1010.1
20260506165814 44 157 6.0 13.0 0.00 0.00 0.00 62 1010.1
20260506165310 44 149 8.0 10.0 0.00 0.00 0.00 61 1010.1
20260506164807 43 144 5.0 7.0 0.00 0.00 0.00 63 1010.1
20260506164304 43 172 5.0 10.0 0.00 0.00 0.00 62 1010.0
20260506163800 43 161 8.0 10.0 0.00 0.00 0.00 61 1010.1
20260506163255 43 140 4.0 9.0 0.00 0.00 0.00 63 1009.9
20260506162751 43 167 9.0 11.0 0.00 0.00 0.00 61 1010.0
20260506162250 43 120 5.0 9.0 0.00 0.00 0.00 60 1009.9
20260506161747 44 137 6.0 11.0 0.00 0.00 0.00 60 1010.0
20260506161244 45 75 2.0 12.0 0.00 0.00 0.00 58 1010.0
20260506160741 46 145 6.0 10.0 0.00 0.00 0.00 57 1009.9
20260506160238 46 147 8.0 12.0 0.00 0.00 0.00 56 1009.9
20260506155737 46 157 4.0 9.0 0.00 0.00 0.00 56 1009.7
20260506155233 46 164 4.0 11.0 0.00 0.00 0.00 55 1009.8
20260506153340 46 310 3.0 6.0 0.00 0.00 0.00 55 1009.7
20260506152837 46 284 5.0 6.0 0.00 0.00 0.00 59 1009.5
20260506152334 47 271 3.0 8.0 0.00 0.00 0.00 56 1009.6
20260506151833 46 16 4.0 10.0 0.00 0.00 0.00 54 1009.7
20260506151329 46 296 6.0 8.0 0.00 0.00 0.00 55 1009.8
20260506150826 46 312 5.0 6.0 0.00 0.00 0.00 53 1009.8
20260506150323 46 20 3.0 5.0 0.00 0.00 0.00 54 1009.6
20260506145820 46 292 6.0 6.0 0.00 0.00 0.00 58 1009.6
20260506145316 46 305 6.0 7.0 0.00 0.00 0.00 56 1009.4
20260506144814 46 307 5.0 6.0 0.00 0.00 0.00 54 1009.6
20260506144310 46 304 7.0 8.0 0.00 0.00 0.00 57 1009.5
20260506143809 45 28 4.0 6.0 0.00 0.00 0.00 54 1009.3
20260506143305 45 338 1.0 5.0 0.00 0.00 0.00 55 1009.5
20260506142804 46 298 4.0 4.0 0.00 0.00 0.00 54 1009.6
20260506142301 46 294 4.0 4.0 0.00 0.00 0.00 54 1009.6
20260506141759 46 302 3.0 4.0 0.00 0.00 0.00 54 1009.6
20260506141258 46 333 2.0 6.0 0.00 0.00 0.00 52 1009.4
20260506140755 46 324 4.0 6.0 0.00 0.00 0.00 54 1009.5
20260506140252 47 286 4.0 6.0 0.00 0.00 0.00 55 1009.5
20260506135749 46 290 4.0 5.0 0.00 0.00 0.00 55 1009.4
20260506135245 46 279 4.0 7.0 0.00 0.00 0.00 54 1009.4
20260506134742 46 273 2.0 4.0 0.00 0.00 0.00 56 1009.4
20260506134238 46 307 4.0 5.0 0.00 0.00 0.00 54 1009.6
20260506133736 46 288 4.0 10.0 0.00 0.00 0.00 60 1009.3
20260506133232 46 24 6.0 7.0 0.00 0.00 0.00 57 1009.3
20260506132729 45 60 6.0 9.0 0.00 0.00 0.00 58 1009.3
20260506132226 44 31 5.0 10.0 0.00 0.00 0.00 56 1009.3
20260506131724 44 19 5.0 9.0 0.00 0.00 0.00 59 1009.4
20260506131220 43 55 7.0 10.0 0.00 0.00 0.00 61 1009.2
20260506130717 44 44 5.0 6.0 0.00 0.00 0.00 63 1009.2
20260506130214 44 23 10.0 11.0 0.02 0.00 0.00 62 1009.4
20260506125712 43 2 5.0 10.0 0.02 0.00 0.00 63 1009.4
20260506125209 43 333 7.0 15.0 0.00 0.00 0.00 60 1009.3
20260506124707 43 334 4.0 8.0 0.00 0.00 0.00 59 1009.3
20260506124205 43 328 6.0 11.0 0.00 0.00 0.00 56 1009.1
20260506123702 43 325 6.0 6.0 0.00 0.00 0.00 56 1009.1
20260506123201 43 321 6.0 9.0 0.00 0.00 0.00 57 1009.1
20260506122657 43 314 6.0 7.0 0.00 0.00 0.00 62 1009.0
20260506122155 43 292 3.0 4.0 0.00 0.00 0.00 61 1009.2
20260506121652 43 309 5.0 6.0 0.00 0.00 0.00 60 1009.1
20260506121148 43 324 4.0 6.0 0.00 0.00 0.00 62 1009.0
20260506120647 43 327 3.0 4.0 0.00 0.00 0.00 61 1008.9
20260506120143 43 309 5.0 6.0 0.00 0.00 0.00 62 1009.1
20260506115642 43 323 5.0 6.0 0.00 0.00 0.00 62 1008.8
20260506115140 43 309 3.0 6.0 0.00 0.00 0.00 63 1008.7
20260506114637 43 316 6.0 6.0 0.00 0.00 0.00 66 1008.7
20260506114135 43 272 3.0 7.0 0.00 0.00 0.00 63 1008.7
20260506113633 43 8 2.0 6.0 0.00 0.00 0.00 66 1008.7
20260506113130 44 317 4.0 6.0 0.00 0.00 0.00 65 1008.6
20260506112626 43 317 6.0 9.0 0.00 0.00 0.00 66 1008.6
20260506112124 42 303 5.0 7.0 0.00 0.00 0.00 68 1008.5
20260506111621 42 321 4.0 8.0 0.00 0.00 0.00 67 1008.7
20260506111119 42 338 3.0 5.0 0.00 0.00 0.00 68 1008.5
20260506110616 42 310 1.0 2.0 0.00 0.00 0.00 66 1008.5
20260506110113 43 331 0.0 5.0 0.00 0.00 0.00 67 1008.4
20260506105609 43 291 4.0 7.0 0.00 0.00 0.00 67 1008.5
20260506105107 42 10 3.0 6.0 0.00 0.00 0.00 71 1008.6
20260506104605 42 320 5.0 8.0 0.00 0.00 0.00 71 1008.5
20260506104102 42 307 7.0 9.0 0.00 0.00 0.00 72 1008.5
20260506103559 42 357 3.0 9.0 0.00 0.00 0.00 72 1008.5
20260506103056 41 299 6.0 10.0 0.00 0.00 0.00 75 1008.2
20260506102554 42 312 7.0 10.0 0.00 0.00 0.00 72 1008.4
20260506102051 42 310 4.0 9.0 0.00 0.00 0.00 74 1008.1
20260506101548 41 298 7.0 11.0 0.00 0.00 0.00 73 1008.4
20260506101045 41 306 9.0 12.0 0.00 0.00 0.00 75 1008.1
20260506100543 41 301 8.0 12.0 0.00 0.00 0.00 76 1008.2
20260506100041 41 291 7.0 11.0 0.00 0.00 0.00 76 1008.2
20260506095540 41 284 7.0 12.0 0.00 0.00 0.00 77 1008.2
20260506095035 41 290 8.0 12.0 0.00 0.00 0.00 75 1008.0
20260506094533 41 278 7.0 11.0 0.00 0.00 0.00 74 1008.1
20260506094031 40 276 7.0 12.0 0.00 0.00 0.00 77 1008.0
20260506093529 40 271 6.0 13.0 0.00 0.00 0.00 74 1008.0
20260506093026 40 287 6.0 14.0 0.00 0.00 0.00 76 1008.0
20260506092524 40 282 14.0 16.0 0.00 0.00 0.00 78 1007.9
20260506092020 40 267 14.0 15.0 0.00 0.00 0.00 77 1007.9
20260506091519 40 280 12.0 19.0 0.00 0.00 0.00 77 1007.7
20260506091016 41 289 11.0 18.0 0.00 0.00 0.00 79 1007.8
20260506090514 41 277 17.0 20.0 0.00 0.00 0.00 76 1007.6
20260506090010 43 290 11.0 15.0 0.00 0.00 0.00 75 1007.7
20260506085507 43 290 3.0 4.0 0.00 0.00 0.00 63 1007.4
20260506085003 43 322 4.0 4.0 0.00 0.00 0.00 64 1007.4
20260506084500 42 315 3.0 4.0 0.00 0.00 0.00 65 1007.4
20260506083956 41 255 3.0 5.0 0.00 0.00 0.00 70 1007.4
20260506083454 42 303 3.0 5.0 0.00 0.00 0.00 69 1007.3
20260506082951 42 284 2.0 5.0 0.00 0.00 0.00 69 1007.4
20260506082448 42 314 4.0 5.0 0.00 0.00 0.00 71 1007.3
20260506081943 41 313 4.0 5.0 0.00 0.00 0.00 69 1007.2
20260506081442 43 293 3.0 4.0 0.00 0.00 0.00 68 1007.1
20260506080939 43 293 3.0 4.0 0.00 0.00 0.00 68 1007.1
20260506080436 43 316 2.0 3.0 0.00 0.00 0.00 68 1007.1
20260506073420 41 318 1.0 2.0 0.00 0.00 0.00 73 1006.9
20260506072917 40 47 1.0 2.0 0.00 0.00 0.00 79 1006.9
20260506072414 40 79 0.0 2.0 0.00 0.00 0.00 77 1006.9
20260506071912 40 50 0.0 2.0 0.00 0.00 0.00 78 1006.8
20260506071410 39 331 0.0 1.0 0.00 0.00 0.00 77 1006.7
20260506070906 39 328 0.0 2.0 0.00 0.00 0.00 77 1006.8
20260506070403 39 25 0.0 2.0 0.00 0.00 0.00 79 1006.8
20260506062340 39 337 1.0 2.0 0.00 0.00 0.00 82 1006.4
20260506061836 39 317 0.0 2.0 0.00 0.00 0.00 82 1006.5
20260506061333 39 32 2.0 2.0 0.00 0.00 0.00 83 1006.4
20260506060831 38 112 1.0 3.0 0.00 0.00 0.00 83 1006.4
20260506060329 38 49 2.0 2.0 0.00 0.00 0.00 83 1006.1
20260506051300 39 101 2.0 2.0 0.00 0.00 0.00 84 1006.2
20260506050759 39 51 0.0 3.0 0.00 0.00 0.00 81 1006.0
20260506050256 39 49 2.0 4.0 0.00 0.00 0.00 85 1006.1
20260506044746 37 63 4.0 4.0 0.00 0.00 0.00 91 1006.0
20260506044244 36 50 4.0 4.0 0.00 0.00 0.00 93 1006.1
20260506043741 36 45 2.0 2.0 0.00 0.00 0.00 92 1006.0
20260506043238 35 48 2.0 3.0 0.00 0.00 0.00 92 1006.1
20260506042737 35 60 3.0 4.0 0.00 0.00 0.00 92 1005.9
20260506042235 36 58 3.0 4.0 0.00 0.00 0.00 93 1005.8
20260506041733 35 72 3.0 3.0 0.00 0.00 0.00 94 1005.8
20260506041230 35 83 2.0 3.0 0.00 0.00 0.00 95 1005.7
20260506040727 35 64 2.0 3.0 0.00 0.00 0.00 95 1005.6
20260506040224 35 67 4.0 5.0 0.00 0.00 0.00 96 1005.6
20260506035721 34 78 4.0 4.0 0.00 0.00 0.00 96 1005.5
20260506035218 33 85 3.0 6.0 0.00 0.00 0.00 96 1005.5
20260506034714 33 68 5.0 6.0 0.00 0.00 0.00 96 1005.6
20260506034212 33 79 5.0 6.0 0.00 0.00 0.00 96 1005.5
20260506033709 33 78 4.0 5.0 0.00 0.00 0.00 96 1005.6
20260506033206 33 78 4.0 5.0 0.00 0.00 0.00 96 1005.4
20260506032703 33 73 6.0 7.0 0.00 0.00 0.00 96 1005.4
20260506032200 33 68 6.0 7.0 0.00 0.00 0.00 96 1005.4
20260506031657 33 66 7.0 7.0 0.00 0.00 0.00 96 1005.3
20260506031154 33 64 6.0 7.0 0.00 0.00 0.00 96 1005.2
20260506030652 34 63 6.0 6.0 0.00 0.00 0.00 96 1005.4
20260506030149 34 55 5.0 5.0 0.00 0.00 0.00 96 1005.2
20260506025646 34 72 3.0 3.0 0.00 0.00 0.00 96 1004.9
20260506025142 34 69 3.0 3.0 0.00 0.00 0.00 96 1005.1
20260506024640 34 84 3.0 4.0 0.00 0.00 0.00 96 1005.0
20260506024136 34 92 4.0 4.0 0.00 0.00 0.00 96 1005.0
20260506023632 34 82 3.0 4.0 0.00 0.00 0.00 96 1005.2
20260506023129 34 73 3.0 4.0 0.00 0.00 0.00 96 1005.3
20260506022627 34 79 4.0 4.0 0.00 0.00 0.00 96 1005.2
20260506022124 34 76 4.0 5.0 0.00 0.00 0.00 96 1005.0
20260506021622 34 77 4.0 5.0 0.00 0.00 0.00 96 1004.9
20260506021119 34 79 3.0 4.0 0.00 0.00 0.00 96 1005.0
20260506020616 34 69 4.0 4.0 0.00 0.00 0.00 95 1005.0
20260506020113 34 72 4.0 4.0 0.00 0.00 0.00 95 1004.8
20260506015611 35 69 4.0 4.0 0.00 0.00 0.00 95 1004.7
20260506015107 35 76 4.0 6.0 0.00 0.00 0.00 95 1004.8
20260506014605 35 77 5.0 5.0 0.00 0.00 0.00 95 1004.9
20260506014100 35 71 5.0 6.0 0.00 0.00 0.00 95 1004.6
20260506013559 35 56 6.0 6.0 0.00 0.00 0.00 95 1004.8
20260506013055 35 54 5.0 6.0 0.00 0.00 0.00 95 1004.8
20260506012551 35 71 4.0 5.0 0.00 0.00 0.00 94 1004.7
20260506012048 35 64 4.0 5.0 0.00 0.00 0.00 94 1004.7
20260506011546 35 84 4.0 4.0 0.00 0.00 0.00 94 1004.5
20260506011042 35 85 3.0 4.0 0.00 0.00 0.00 94 1004.6
20260506010542 35 55 3.0 4.0 0.00 0.00 0.00 94 1004.5
20260506010038 35 69 3.0 3.0 0.00 0.00 0.00 94 1004.5
20260506005535 35 92 3.0 4.0 0.00 0.00 0.00 94 1004.7
20260506005031 35 63 2.0 3.0 0.00 0.00 0.00 94 1004.4
20260506004528 35 65 4.0 5.0 0.00 0.00 0.00 94 1004.6
20260506004025 35 60 4.0 4.0 0.00 0.00 0.00 94 1004.6
20260506003521 35 43 3.0 3.0 0.00 0.00 0.00 94 1004.3
20260506003017 35 45 0.0 3.0 0.00 0.00 0.00 94 1004.5
20260506002514 35 78 2.0 3.0 0.00 0.00 0.00 94 1004.5
20260506002009 35 83 2.0 3.0 0.00 0.00 0.00 94 1004.2
20260506001506 35 74 2.0 4.0 0.00 0.00 0.00 94 1004.5
20260506001004 35 84 4.0 4.0 0.00 0.00 0.00 94 1004.5
20260506000501 35 64 4.0 6.0 0.00 0.00 0.00 94 1004.2
20260505235957 35 71 4.0 4.0 0.00 0.00 0.00 94 1004.3
20260505235456 35 71 4.0 4.0 0.00 0.00 0.00 94 1004.3
20260505234952 35 77 4.0 4.0 0.00 0.00 0.00 94 1004.0
20260505234450 35 59 4.0 4.0 0.00 0.00 0.00 94 1004.2
20260505233946 35 74 3.0 4.0 0.00 0.00 0.00 93 1004.1
20260505233444 35 69 5.0 6.0 0.00 0.00 0.00 93 1003.9
20260505232941 35 74 4.0 6.0 0.00 0.00 0.00 93 1004.1
20260505232439 35 68 6.0 7.0 0.00 0.00 0.00 93 1004.0
20260505231936 35 75 5.0 7.0 0.00 0.00 0.00 93 1004.0
20260505231433 35 70 4.0 6.0 0.00 0.00 0.00 92 1004.1
20260505230931 36 73 4.0 5.0 0.00 0.00 0.00 92 1003.9
20260505230429 36 77 5.0 6.0 0.00 0.00 0.00 92 1003.9
20260505225925 36 71 6.0 7.0 0.00 0.00 0.00 92 1004.1
20260505225422 36 64 6.0 7.0 0.00 0.00 0.00 92 1003.9
20260505224917 36 81 3.0 5.0 0.00 0.00 0.00 92 1004.0
20260505224415 36 71 6.0 6.0 0.00 0.00 0.00 91 1003.9
20260505223912 37 78 4.0 6.0 0.00 0.00 0.00 91 1003.9
20260505223409 37 80 4.0 6.0 0.00 0.00 0.00 90 1003.9
20260505222905 37 70 4.0 6.0 0.00 0.00 0.00 89 1003.9
20260505222401 37 70 6.0 7.0 0.00 0.00 0.00 88 1003.8
20260505221858 37 52 4.0 4.0 0.00 0.00 0.00 87 1003.9
20260505221355 38 47 4.0 5.0 0.00 0.00 0.00 85 1003.7
20260505220852 38 38 2.0 3.0 0.00 0.00 0.00 83 1003.5
20260505220349 38 20 4.0 6.0 0.00 0.00 0.00 83 1003.7
20260505215847 38 77 2.0 3.0 0.00 0.01 0.01 82 1003.7
20260505215345 38 106 3.0 4.0 0.00 0.01 0.01 82 1003.6
20260505214843 38 96 2.0 4.0 0.00 0.01 0.01 82 1003.6
20260505214340 38 269 0.0 2.0 0.00 0.01 0.01 81 1003.7
20260505213837 39 262 0.0 6.0 0.00 0.01 0.01 82 1003.5
20260505213335 39 94 2.0 2.0 0.00 0.01 0.01 81 1003.6
20260505212830 39 84 1.0 6.0 0.00 0.01 0.01 81 1003.4
20260505212328 39 112 3.0 3.0 0.00 0.01 0.01 81 1003.5
20260505211824 39 112 0.0 3.0 0.00 0.01 0.01 81 1003.4
20260505211322 39 115 4.0 5.0 0.00 0.01 0.01 81 1003.4
20260505210818 39 117 3.0 4.0 0.00 0.01 0.01 80 1003.4
20260505210315 39 93 2.0 6.0 0.00 0.01 0.01 78 1003.3
20260505205812 39 121 3.0 5.0 0.00 0.01 0.01 78 1003.4
20260505205310 39 341 1.0 4.0 0.00 0.01 0.01 78 1003.3
20260505204806 39 102 5.0 5.0 0.00 0.01 0.01 78 1003.2
20260505204304 39 91 3.0 5.0 0.00 0.01 0.01 78 1003.1
20260505203801 39 95 3.0 4.0 0.00 0.01 0.01 78 1003.0
20260505203258 39 104 3.0 5.0 0.00 0.01 0.01 78 1003.0
20260505202754 39 91 5.0 7.0 0.00 0.01 0.01 78 1003.1
20260505202250 39 107 4.0 6.0 0.00 0.01 0.01 78 1002.9
20260505201747 39 89 4.0 5.0 0.00 0.01 0.01 78 1002.9
20260505201244 39 95 5.0 5.0 0.00 0.01 0.01 77 1002.9
20260505200743 39 89 4.0 6.0 0.00 0.01 0.01 77 1002.8
20260505200240 39 100 3.0 6.0 0.00 0.01 0.01 76 1002.8
20260505195735 39 78 2.0 7.0 0.00 0.01 0.01 76 1002.9
20260505195233 40 93 5.0 6.0 0.00 0.01 0.01 75 1002.8
20260505194730 40 89 3.0 5.0 0.00 0.01 0.01 74 1002.8
20260505194226 40 62 2.0 4.0 0.00 0.01 0.01 73 1003.0
20260505193722 40 83 2.0 6.0 0.00 0.01 0.01 73 1002.8
20260505193219 40 80 2.0 3.0 0.00 0.01 0.01 73 1002.8
20260505192718 40 123 5.0 6.0 0.00 0.01 0.01 72 1002.7
20260505192215 40 144 2.0 3.0 0.00 0.01 0.01 71 1002.7
20260505191713 40 139 3.0 6.0 0.00 0.01 0.01 71 1002.8